Location: Platte
(43.3870°N, 98.8440°W)
Time: 20:40:40
(UTC-05:00)

Cosmos 990 Rocket - Pass Details

Date: 21 May 2018
Orbit: 747 x 769 km, 74.0° (Epoch: 16 June)

Event Time Altitude Azimuth Distance (km) Brightness Sun altitude
Rises 22:22:43 0° 343° (NNW) 3,223 8.4 -12.9°
Reaches altitude 10° 22:25:09 10° 347° (NNW) 2,297 7.4 -13.2°
Maximum altitude 22:30:16 56° 66° (ENE) 904 4.2 -13.8°
Enters shadow 22:33:35 22° 138° (SE) 1,641 5.1 -14.2°
